Location: Gand�
(15.0971°N, 12.6564°W)
Time: 15:24:39
(UTC+00:00)

deb Chang Zheng 4 - Pass Details

Date: 07 August 2020
Orbit: 604 x 624 km, 98.6° (Epoch: 19 September)

Event Time Altitude Azimuth Distance (km) Brightness Sun altitude
Rises 04:59:51 0° 5° (N) 2,897 7.4 -22.2°
Reaches altitude 10° 05:02:04 10° 1° (N) 1,991 6.5 -21.7°
Maximum altitude 05:06:18 56° 283° (WNW) 740 3.6 -20.8°
Enters shadow 05:06:45 53° 257° (WSW) 765 3.6 -20.7°
